Weather History for Lexington, KY

Change the Weather History Date:

Tuesday, April 15, 2014

  Actual Average Record
Temperature  
Mean Temperature 38 °F 55 °F  
Max Temperature 46 °F 66 °F 84 °F (2010)
Min Temperature 29 °F 45 °F 25 °F (1943)
Degree Days  
Heating Degree Days 27 10  
Month to date heating degree days 118 188  
Since 1 July heating degree days 4677 4364  
Cooling Degree Days 0 1  
Month to date cooling degree days 11 6  
Year to date cooling degree days 11 8  
Moisture  
Dew Point 31 °F    
Average Humidity 70    
Maximum Humidity 92    
Minimum Humidity 48    
Precipitation  
Precipitation 0.21 in 0.12 in 1.22 in (1994)
Month to date precipitation 2.00 1.69  
Year to date precipitation 11.93 12.16  
Snow  
Snow 0.30 in 0.00 in 0.30 in (1980)
Month to date snowfall 0.3 0.3  
Since 1 July snowfall 27.1 13.0  
Snow Depth T in    
Sea Level Pressure  
Sea Level Pressure 29.96 in    
Wind  
Wind Speed 11 mph (NNW)    
Max Wind Speed 22 mph    
Max Gust Speed 30 mph    
Visibility 7 miles    
Events Rain , Snow    
T = Trace of Precipitation, MM = Missing Value Source: NWS Daily Summary

Daily Weather History Graph

Daily Weather History Graph

Search for Another Location

Airport:

Trip Planner

Search our weather history database for the weather conditions in past years. The results will help you decide how hot, cold, wet, or windy it might be!

Date:

Astronomy

Apr. 15, 2014 Rise Set
Actual Time 7:02 AM EDT 8:14 PM EDT
Civil Twilight 6:35 AM EDT 8:41 PM EDT
Nautical Twilight 6:03 AM EDT 9:14 PM EDT
Astronomical Twilight 5:29 AM EDT 9:48 PM EDT
Moon 8:53 PM EDT (4/15) 7:10 AM EDT (4/15)
Length of Visible Light 14h 05m
Length of Day
13h 11m
Full, 100% of the Moon is Illuminated
Apr 15
Full
Apr 22
Last Quarter
Apr 29
New
May 6
First Quarter
May 14
Full

Hourly Weather History & Observations

Time (EDT) Temp. Windchill Dew Point Humidity Pressure Visibility Wind Dir Wind Speed Gust Speed Precip Events Conditions
12:01 AM 48.9 °F - 46.0 °F 90% 29.75 in 8.0 mi NNW 15.0 mph - 0.00 in Rain Light Rain
12:18 AM 48.0 °F - 45.0 °F 89% 29.77 in 10.0 mi NW 20.7 mph 25.3 mph 0.01 in Rain Light Rain
12:46 AM 46.0 °F 39.3 °F 43.0 °F 89% 29.77 in 10.0 mi NNW 16.1 mph 24.2 mph 0.01 in   Overcast
12:54 AM 46.0 °F 40.6 °F 43.0 °F 89% 29.76 in 10.0 mi NW 11.5 mph 24.2 mph 0.01 in Rain Light Rain
1:22 AM 44.6 °F 37.2 °F 41.0 °F 87% 29.79 in 7.0 mi NNW 17.3 mph 27.6 mph N/A Rain Light Rain
1:54 AM 42.1 °F 33.3 °F 39.0 °F 89% 29.81 in 6.0 mi NW 19.6 mph 31.1 mph 0.02 in Rain Light Rain
2:25 AM 39.9 °F 31.4 °F 36.0 °F 86% 29.82 in 10.0 mi NNW 16.1 mph 25.3 mph 0.00 in Rain Light Rain
2:44 AM 39.0 °F 29.9 °F 36.0 °F 89% 29.82 in 10.0 mi NNW 17.3 mph 21.9 mph 0.00 in Rain Light Rain
2:52 AM 39.2 °F 31.2 °F 35.6 °F 87% 29.81 in 10.0 mi NNW 13.8 mph 23.0 mph 0.00 in Rain Light Rain
2:54 AM 39.0 °F 30.6 °F 36.0 °F 89% 29.81 in 10.0 mi NNW 15.0 mph 23.0 mph 0.00 in Rain Light Rain
3:07 AM 39.0 °F 31.0 °F 36.0 °F 89% 29.83 in 7.0 mi NW 13.8 mph - 0.00 in Rain Light Rain
3:16 AM 37.9 °F 28.9 °F 36.0 °F 93% 29.82 in 5.0 mi NW 16.1 mph 21.9 mph 0.01 in Rain Rain
3:45 AM 37.0 °F 28.9 °F 35.1 °F 93% 29.84 in 5.0 mi NNW 12.7 mph 25.3 mph 0.04 in Rain Light Rain
3:54 AM 37.0 °F 28.1 °F 35.1 °F 93% 29.83 in 7.0 mi NNW 15.0 mph - 0.04 in Rain Light Rain
4:09 AM 37.0 °F 31.6 °F 35.1 °F 93% 29.85 in 5.0 mi NW 6.9 mph - 0.02 in Rain Rain
4:19 AM 36.0 °F 27.1 °F 34.0 °F 93% 29.86 in 6.0 mi WNW 13.8 mph 20.7 mph 0.04 in Rain Rain
4:29 AM 35.1 °F 25.5 °F 32.0 °F 89% 29.86 in 7.0 mi NNW 15.0 mph 24.2 mph 0.05 in Snow Light Snow
4:42 AM 35.1 °F 26.9 °F 32.0 °F 89% 29.86 in 7.0 mi NW 11.5 mph - 0.05 in Snow Light Snow
4:54 AM 34.0 °F 26.6 °F 32.0 °F 92% 29.86 in 5.0 mi NW 9.2 mph - 0.06 in Snow Light Snow
5:07 AM 33.1 °F 23.0 °F 30.9 °F 92% 29.87 in 2.5 mi NNW 15.0 mph - 0.01 in Snow Light Snow
5:14 AM 33.1 °F 22.6 °F 30.9 °F 92% 29.87 in 3.0 mi NW 16.1 mph - 0.01 in Snow Light Snow
5:26 AM 33.1 °F 23.4 °F 30.9 °F 92% 29.88 in 2.5 mi NW 13.8 mph - 0.02 in Snow Light Snow
5:41 AM 33.1 °F 23.4 °F 30.9 °F 92% 29.86 in 1.8 mi NW 13.8 mph 19.6 mph 0.02 in Snow Light Snow
5:54 AM 33.1 °F 22.6 °F 30.9 °F 92% 29.90 in 1.8 mi NW 16.1 mph 26.5 mph 0.03 in Snow Light Snow
6:20 AM 33.1 °F 22.6 °F 30.0 °F 89% 29.89 in 1.5 mi NW 16.1 mph - 0.02 in Snow Light Snow
6:37 AM 33.1 °F 25.5 °F 30.9 °F 92% 29.90 in 0.8 mi NNW 9.2 mph 19.6 mph 0.03 in Snow Light Snow
6:45 AM 33.1 °F 26.1 °F 30.9 °F 92% 29.92 in 1.2 mi NW 8.1 mph - 0.04 in Snow Light Snow
6:54 AM 33.1 °F 26.1 °F 30.9 °F 92% 29.92 in 1.8 mi NW 8.1 mph - 0.04 in Snow Light Snow
7:35 AM 33.1 °F 24.9 °F 30.9 °F 92% 29.94 in 2.0 mi NW 10.4 mph - 0.02 in Snow Light Snow
7:54 AM 33.1 °F 26.1 °F 30.9 °F 92% 29.97 in 1.8 mi WNW 8.1 mph - 0.02 in Snow Light Snow
8:03 AM 33.1 °F 24.4 °F 30.9 °F 92% 29.97 in 3.0 mi NW 11.5 mph - 0.00 in Snow Light Snow
8:15 AM 33.1 °F 24.9 °F 30.9 °F 92% 29.97 in 4.0 mi NW 10.4 mph - 0.00 in Snow Light Snow
8:52 AM 33.8 °F 24.8 °F 28.4 °F 81% 29.98 in 9.0 mi NW 12.7 mph 20.7 mph 0.00 in Snow Light Snow
8:54 AM 34.0 °F 25.5 °F 28.9 °F 82% 29.98 in 9.0 mi NNW 11.5 mph 20.7 mph 0.00 in Snow Light Snow
9:54 AM 35.1 °F 27.4 °F 28.9 °F 78% 30.01 in 10.0 mi NW 10.4 mph - 0.00 in   Mostly Cloudy
10:08 AM 35.1 °F 26.4 °F 28.9 °F 78% 29.99 in 10.0 mi NNW 12.7 mph 21.9 mph N/A   Overcast
10:23 AM 36.0 °F 28.5 °F 30.0 °F 79% 30.01 in 10.0 mi NNW 10.4 mph - N/A   Mostly Cloudy
10:30 AM 36.0 °F 27.5 °F 30.0 °F 79% 29.99 in 10.0 mi NNW 12.7 mph - N/A   Mostly Cloudy
10:54 AM 36.0 °F 27.1 °F 28.9 °F 76% 30.01 in 10.0 mi NNW 13.8 mph - N/A   Overcast
11:13 AM 37.0 °F 29.3 °F 28.9 °F 73% 30.02 in 10.0 mi NNW 11.5 mph - N/A   Overcast
11:20 AM 37.0 °F 29.3 °F 28.9 °F 73% 30.03 in 10.0 mi NW 11.5 mph 21.9 mph N/A   Overcast
11:28 AM 37.0 °F 28.5 °F 28.9 °F 73% 30.03 in 10.0 mi NNW 13.8 mph - N/A   Overcast
11:36 AM 37.0 °F 29.3 °F 28.0 °F 70% 30.04 in 10.0 mi NNW 11.5 mph - N/A   Overcast
11:54 AM 36.0 °F 27.5 °F 28.9 °F 76% 30.05 in 10.0 mi NNW 12.7 mph - N/A   Overcast
12:01 PM 36.0 °F 27.1 °F 28.0 °F 73% 30.04 in 10.0 mi NNW 13.8 mph - N/A   Overcast
12:36 PM 37.0 °F 30.4 °F 28.0 °F 70% 30.06 in 10.0 mi NNW 9.2 mph - N/A   Overcast
12:54 PM 37.9 °F 32.1 °F 28.9 °F 70% 30.07 in 10.0 mi NNW 8.1 mph - N/A   Overcast
1:13 PM 39.0 °F 32.3 °F 28.9 °F 67% 30.06 in 10.0 mi NNW 10.4 mph - N/A   Overcast
1:54 PM 39.0 °F 31.0 °F 28.0 °F 65% 30.08 in 10.0 mi NW 13.8 mph - 0.00 in   Overcast
2:54 PM 41.0 °F 33.9 °F 28.9 °F 62% 30.10 in 10.0 mi NW 12.7 mph - N/A   Overcast
3:54 PM 39.9 °F 31.8 °F 25.0 °F 55% 30.11 in 10.0 mi NW 15.0 mph - N/A   Overcast
4:54 PM 41.0 °F 34.3 °F 24.1 °F 51% 30.12 in 10.0 mi NNW 11.5 mph - N/A   Overcast
5:54 PM 39.9 °F 33.4 °F 21.9 °F 49% 30.14 in 10.0 mi NW 10.4 mph - N/A   Overcast
6:54 PM 39.0 °F 31.4 °F 21.9 °F 50% 30.17 in 10.0 mi NNW 12.7 mph - N/A   Overcast
7:54 PM 37.0 °F 31.6 °F 21.9 °F 54% 30.19 in 10.0 mi NNW 6.9 mph - N/A   Partly Cloudy
8:54 PM 35.1 °F 28.6 °F 21.0 °F 57% 30.21 in 10.0 mi North 8.1 mph - N/A   Clear
9:54 PM 33.1 °F 26.9 °F 21.0 °F 61% 30.23 in 10.0 mi NNE 6.9 mph - N/A   Clear
10:54 PM 33.1 °F 26.1 °F 19.9 °F 59% 30.25 in 10.0 mi North 8.1 mph - N/A   Clear
11:54 PM 30.0 °F 23.2 °F 19.0 °F 64% 30.26 in 10.0 mi NE 6.9 mph - N/A   Clear